Location: Eichfeld
(49.8432°N, 10.3013°E)
Time: 08:49:55
(UTC+00:00)

Daily predictions for brighter satellites

Satellite Brightness Start Highest point End
(mag) Time Altitude Azimuth Time Altitude Azimuth Time Altitude Azimuth
Cosmos 2219 3.5 19:56:40 10° SSW 20:02:17 77° WNW 20:07:56 10° NNE
Cosmos 1655 Rocket 4.3 19:58:38 10° N 20:04:55 59° ENE 20:11:12 10° SSE
Cosmos 1461 3.0 20:04:13 10° NNW 20:07:40 48° NE 20:11:01 10° ESE
Cosmos 2298 Rocket 4.2 20:04:38 10° NNW 20:09:57 67° ENE 20:15:13 10° SSE
Cosmos 2150 Rocket 4.2 20:06:15 10° NNW 20:11:43 75° ENE 20:17:04 10° SSE
CZ-4B R/B 3.5 20:08:26 10° SE 20:12:04 42° ENE 20:15:50 10° N
USA 186 0.8 20:11:37 10° SSE 20:13:58 82° ENE 20:16:13 10° N
Cosmos 836 Rocket 4.5 20:08:52 10° SSW 20:14:02 83° ESE 20:19:17 10° NNE
Sich 1 3.3 20:12:19 10° N 20:16:31 54° ENE 20:20:43 10° SSE
BREEZE-M R/B 4.5 20:10:38 10° WNW 20:18:57 64° SSW 20:24:33 10° SE
GP-B 4.5 20:17:02 10° NNE 20:20:34 23° E 20:24:05 10° SE
Terra 3.6 20:22:28 10° SSW 20:26:33 29° W 20:30:40 10° NNW
Cosmos 44 Rocket 4.3 20:23:54 10° NW 20:28:46 42° WSW 20:33:30 10° S
CENTAUR R/B 3.0 20:23:33 10° SW 20:29:13 68° NW 20:36:31 10° NE
Cosmos 1758 3.2 20:27:29 10° N 20:31:10 63° ENE 20:34:45 10° SSE
Cosmos 2208 Rocket 4.0 20:30:43 10° SSW 20:35:55 88° ESE 20:41:06 10° NNE
BREEZE-M DEB (TANK) 1.4 20:35:15 10° W 20:37:42 73° S 20:39:45 10° ESE
SPOT 3 Rocket 3.6 20:34:21 10° SSE 20:39:29 86° WSW 20:44:40 10° NNW
YAOGAN 11 4.4 20:38:00 10° N 20:42:28 74° WNW 20:46:51 10° SSW
Cosmos 2227 4.3 20:40:10 10° SSW 20:45:56 87° WNW 20:51:45 10° NNE
Okean 3 Rocket 3.6 20:42:17 10° N 20:46:46 85° W 20:51:06 10° S
Cosmos 724 4.3 20:41:49 10° NW 20:47:41 86° NE 20:52:53 13° SE
Ariane Rocket 3.0 20:44:08 11° SSE 20:49:07 89° ENE 20:54:14 10° NNW
NOSS 2-3 (E) 4.4 20:47:13 12° SSE 20:49:34 21° ESE 20:52:26 10° ENE
IRS-1C Rocket 4.1 20:44:30 11° SSE 20:49:40 89° ENE 20:54:57 10° NNW
Okean-O 4.0 20:46:25 10° SSW 20:50:24 35° W 20:54:26 10° NNW
Cosmos 1805 Rocket 3.5 20:48:44 10° N 20:53:03 71° ENE 20:56:46 14° SSE
Cosmos 1340 Rocket 2.9 20:52:41 10° NNW 20:56:27 68° W 20:59:47 12° S
NOSS 3-2 (A) 3.1 20:51:44 10° SW 20:56:46 83° SE 21:02:54 10° NE
Cosmos 1408 Rocket 3.6 20:52:48 10° N 20:57:14 79° E 21:01:00 14° SSE
USA 215 3.3 20:50:46 10° ESE 20:57:18 83° NNE 21:03:52 10° WNW
Cosmos 1842 Rocket 4.4 20:54:00 10° SSW 20:58:20 53° WNW 21:02:42 10° N
Cosmos 1603 4.1 20:52:57 10° NW 20:58:36 59° WSW 21:03:42 12° S
Cosmos 1743 Rocket 3.8 21:00:19 10° N 21:04:36 56° ENE 21:07:49 17° SSE
Cosmos 1703 3.3 21:04:34 19° SSE 21:06:25 38° E 21:09:24 10° NNE
USA 245 4.1 21:03:15 10° S 21:06:49 38° WSW 21:09:48 10° NNW
Cosmos 1844 Rocket 3.2 21:02:54 10° SW 21:08:25 62° WNW 21:13:58 10° NNE
Meteor 1-22 Rocket 4.4 21:04:14 10° N 21:09:29 56° ENE 21:13:31 17° SSE
SL-14 R/B 4.1 21:07:35 10° SSW 21:11:10 46° WNW 21:14:47 10° N
Cosmos 1553 Rocket 4.0 21:07:39 10° S 21:14:02 82° E 21:20:22 10° N
CZ-4C R/B 4.1 21:08:44 10° WNW 21:15:06 34° WSW 21:22:35 10° S
Cosmos 1833 Rocket 3.0 21:12:51 10° NNW 21:18:28 60° ENE 21:22:56 16° SE
Cosmos 1151 Rocket 3.1 21:14:30 10° SSW 21:18:49 79° W 21:23:10 10° N
Cosmos 2082 Rocket 4.2 21:19:06 10° N 21:23:21 21° NE 21:27:35 10° E
CZ-2C R/B 2.3 21:23:48 22° S 21:25:18 55° W 21:28:01 10° NNW
Cosmos 1953 2.2 21:24:03 10° N 21:27:36 57° ENE 21:29:35 23° SSE
CZ-4B R/B 4.3 21:24:45 12° S 21:29:14 45° W 21:34:14 10° NNW
Okean O Rocket 4.1 21:27:36 10° SW 21:30:09 15° W 21:32:43 10° NW
Cosmos 2278 Rocket 3.9 21:28:07 13° ESE 21:30:10 15° E 21:33:21 10° ENE
Cosmos 1633 Rocket 3.5 21:31:14 10° N 21:35:31 48° ENE 21:38:07 21° SE
Meteor 1-13 Rocket 4.5 21:33:11 17° S 21:37:38 61° E 21:43:30 10° NNE
NOSS 3-2 (C) 3.1 21:33:09 10° SSW 21:38:09 68° SE 21:44:09 10° NE
Cosmos 1461 4.4 21:41:02 10° WNW 21:43:33 19° WSW 21:45:06 14° SSW
NOSS 2-3 (C) 3.4 21:42:37 26° S 21:44:04 41° SE 21:47:27 10° NE
Cosmos 1745 Rocket 4.0 21:40:08 10° N 21:46:25 88° W 21:51:04 20° S
Cosmos 2056 Rocket 4.4 21:44:50 10° NNW 21:49:39 39° ENE 21:53:26 15° ESE
Helios 1A 2.8 21:51:25 10° NNE 21:55:21 66° ESE 21:57:27 26° S
Cosmos 2344 3.7 21:48:59 10° SSW 21:56:35 51° ESE 22:03:30 10° NE
GP-B 4.1 21:53:38 10° NNW 21:57:45 40° W 22:01:23 13° SSW
Helios 1B rocket 2.3 21:57:42 28° SE 21:59:14 54° ENE 22:02:38 10° N
Iridium 4 Rocket 4.0 21:55:05 14° SSW 21:59:41 58° W 22:04:41 10° N
ARIANE 5 R/B 3.3 21:59:12 21° SE 22:01:49 46° ENE 22:06:04 10° N
BREEZE-M R/B 4.4 21:57:27 12° SSW 22:01:55 43° SE 22:11:01 10° ENE
Cosmos 1470 Rocket 3.7 22:02:55 10° N 22:07:22 68° ENE 22:09:41 27° SSE
Okean 2 3.8 22:07:04 29° SE 22:08:30 43° E 22:12:10 10° NNE
Cosmos 1241 Rocket 4.4 22:03:11 10° SSW 22:09:22 80° SE 22:15:38 10° NE
Cosmos 1420 Rocket 3.9 22:04:53 10° NNW 22:10:08 87° WSW 22:13:10 26° SSE
NOSS 2-3 (D) 3.3 22:07:40 10° SW 22:11:20 74° NW 22:15:14 10° NE
ALOS 2 3.1 22:11:55 24° SE 22:14:19 51° ENE 22:18:35 10° N
Cosmos 1933 Rocket 4.5 22:10:39 10° N 22:14:40 37° ENE 22:16:54 22° SE
Cosmos 1538 Rocket 4.2 22:11:36 12° SSW 22:16:25 69° WNW 22:21:39 10° NNE
Cosmos 2315 Rocket 4.0 22:13:38 20° S 22:18:06 90° S 22:24:22 10° N
Cosmos 1943 Rocket 2.6 22:16:33 25° SSE 22:19:28 45° ESE 22:24:50 10° NE
Meteor 1-21 4.2 22:18:13 23° S 22:21:53 84° E 22:27:33 10° NNE
Cosmos 923 Rocket 4.0 22:21:15 24° S 22:24:23 68° ESE 22:29:35 10° NNE
CZ-2C R/B 3.8 22:22:36 10° NNE 22:27:18 72° ESE 22:29:46 28° S
Cosmos 1328 Rocket 4.0 22:24:40 21° SSW 22:27:27 58° WNW 22:31:45 10° N
Cosmos 2112 Rocket 4.4 22:28:52 27° SSE 22:31:17 48° ESE 22:36:15 10° NNE
Lacrosse 5 rocket 0.9 22:30:44 35° SSW 22:31:55 56° SE 22:35:22 10° ENE
CZ-2C R/B 3.6 22:31:43 16° SE 22:35:18 38° ENE 22:40:06 10° N
USA 81 4.1 22:32:45 10° N 22:38:02 75° E 22:40:53 28° SSE
NOSS 2-3 (E) 4.3 22:35:34 10° WSW 22:39:04 43° NW 22:42:51 10° NE
USA 215 3.9 22:37:29 24° S 22:40:44 39° SW 22:46:46 10° WNW
Cosmos 1371 Rocket 4.0 22:35:27 10° NNW 22:40:45 88° ENE 22:43:38 27° SSE
PSLV R/B 3.9 22:38:00 10° NNE 22:42:37 62° ESE 22:44:44 31° S
Cosmos 1869 Rocket 3.9 22:42:30 10° N 22:46:45 56° ENE 22:48:44 29° SE
GEOS 3 Rocket 3.9 22:45:16 27° SSE 22:48:00 55° SW 22:53:19 10° NW
MetOp-A 3.7 22:53:36 29° SE 22:55:24 55° ENE 22:59:09 10° N
NOSS 2-1 (D) 3.4 22:55:58 38° SE 22:56:11 39° SE 22:59:08 10° ENE
Cosmos 1515 Rocket 3.7 22:55:38 29° SSW 22:57:47 68° WNW 23:02:07 10° N
Cosmos 2154 Rocket 4.0 22:51:51 10° N 22:58:05 75° ENE 23:01:51 25° SSE
Cosmos 2184 Rocket 4.0 22:52:49 10° N 22:59:06 82° E 23:02:54 26° SSE
NOSS 2-1 (C) 3.7 22:59:06 35° SE 22:59:12 35° SE 23:02:07 10° ENE
Spot 4 4.3 22:59:30 28° SSW 23:01:47 51° W 23:06:30 10° NNW
USA 59 Rocket -0.6 23:01:29 47° SSE 23:01:58 53° SE 23:04:56 10° NE
Cosmos 1833 Rocket 4.0 22:57:21 10° NW 23:01:58 26° WSW 23:04:36 19° SW
SAR-Lupe-2 3.2 23:05:51 50° S 23:06:37 87° WSW 23:09:52 10° NNW
Cosmos 1733 Rocket 4.1 23:02:48 10° N 23:06:49 37° ENE 23:09:08 21° SE
Cosmos 2082 Rocket 2.2 23:02:37 10° NNW 23:08:18 83° ENE 23:11:51 24° SSE
Okean 3 3.3 23:09:18 35° SSW 23:10:54 74° WNW 23:14:54 10° N
Cosmos 2278 Rocket 2.1 23:09:54 25° SSW 23:13:22 85° ESE 23:19:04 10° NNE
Cosmos 1331 Rocket 4.0 23:15:24 10° NNW 23:20:35 83° ENE 23:23:34 26° SSE
Okean 1-7 3.9 23:20:00 25° SE 23:21:40 36° E 23:25:32 10° NNE
Cosmos 1400 Rocket 3.5 23:21:05 10° NNW 23:24:29 36° W 23:25:30 29° SW
Cosmos 1680 Rocket 4.0 23:22:43 19° SW 23:26:23 55° WNW 23:31:30 10° NNE
COSMOS 2406 3.7 23:20:56 10° NNW 23:26:35 60° NE 23:31:27 14° SE
CZ-2C R/B 3.1 23:21:02 10° NNE 23:26:40 88° WNW 23:29:38 28° SSW
Cosmos 494 Rocket 4.3 23:24:38 21° SW 23:28:05 62° WNW 23:33:19 10° NNE
Cosmos 2056 Rocket 4.4 23:27:01 10° NW 23:31:37 34° WSW 23:33:39 25° SW
Helios 1B rocket 4.4 23:31:35 12° WSW 23:32:28 13° W 23:34:02 10° WNW
IRIDIUM 106 4.5 23:27:25 10° N 23:32:38 67° E 23:35:33 26° SSE
Cosmos 1048 Rocket 4.0 23:31:19 29° SSW 23:34:00 78° ESE 23:39:17 10° NNE
Cosmos 1328 3.4 23:35:16 44° S 23:36:19 83° E 23:39:54 10° NNE
Cosmos 1812 4.1 23:35:28 10° NW 23:35:32 10° NW 23:35:32 10° NW
ARIANE 5 R/B 4.2 23:36:34 18° SW 23:38:19 23° W 23:41:52 10° NW
ACS3 Solar Sail 1.9 23:34:14 10° NNE 23:39:54 61° E 23:43:11 26° S
USA 238 DEB 3.7 23:36:16 14° SW 23:41:41 76° NW 23:48:35 10° NE
USA 238 3.7 23:36:31 14° SW 23:41:54 77° NW 23:48:48 10° NE
Lacrosse 4 Rocket 4.2 23:39:44 10° N 23:42:45 19° NE 23:45:45 10° E
Geosat 4.0 23:42:10 10° NE 23:47:10 66° ESE 23:49:42 29° SSW
Cosmos 546 4.5 23:46:26 10° WSW 23:50:14 89° SSE 23:54:02 10° ENE
BREEZE-M DEB (TANK) 3.0 23:39:23 10° W 23:50:37 82° SSW 23:54:15 10° ESE
ALOS 2 4.3 23:49:18 17° WSW 23:50:57 20° W 23:54:13 10° NW
SWAS 4.2 23:52:23 35° SSW 23:54:03 84° ESE 23:58:08 10° NNE
TIMED 4.4 23:53:01 32° SSW 23:54:58 81° WNW 23:59:14 10° NNE
Cosmos 1441 Rocket 4.3 23:54:17 21° WSW 23:55:28 27° WNW 23:58:17 10° N
